sat.trackr.live / text

‹ back to catalog

STPSAT-6

NORAD 49817 · 2021-118A

PAYLOAD ACTIVE UNKNOWN

§ Identity

Operator
Country
US
Launch date
2021-12-07
Launch site
AFETR
Launch vehicle
Mass (kg)
RCS (m²)

Purposes: comms

External: N2YO · Heavens-Above · Gunter

§ Orbital elements

Epoch: 2026-09-20T03:54:19.884960Z

Period
1,436.09 min
Inclination
0.5592°
Eccentricity
0.0000926
Mean motion
1.00272172 rev/d
Perigee alt
35,782.6 km
Apogee alt
35,790.4 km
Semi-major
42,164.6 km
B*
0.0000e+0
RAAN
84.1449°
Arg perigee
207.9738°
Mean anomaly
13.6059°
Rev number
1,752

§ Raw data

STPSAT-61 49817U 21118A   26263.16273015 -.00000048  00000+0  00000+0 0  99972 49817   0.5592  84.1449 0000926 207.9738  13.6059  1.00272172 17526

JSON: /api/v1/satellites/49817 · /tle

For live sub-satellite position, see the globe view (requires WebGL).

§ Visibility from observer

Set your observer location to see the next 7 days of passes ≥ 10°. The values pass through the URL so the page stays shareable.

No JS? Fill the form by hand. The geolocation button needs JavaScript.